Gold Coast Seaway Observation History
Time Wind Speed Temp Pressure Rel. Hum Rain
11/02:30am SW 5-6 kts 20.2°c 1014.6 hPa 99% 0.0mm
11/02:00am SW 5-6 kts 20.5°c 1014.7 hPa 98% 0.0mm
11/01:30am SW 6-7 kts 20.9°c 1015.2 hPa 97% 0.0mm
11/01:00am SW 6-7 kts 21.0°c 1015.3 hPa 93% 0.0mm
11/12:30am NE 4-5 kts 21.5°c 1015.4 hPa 89% 0.0mm
11/12:00am NE 5-6 kts 22.0°c 1015.6 hPa 87% 0.0mm
Time Wind Speed Temp Pressure Rel. Hum Rain
10/11:30pm NNE 5-6 kts 22.2°c 1015.9 hPa 84% 0.0mm
10/11:00pm NE 7 kts 22.9°c 1016.0 hPa 86% 0.0mm
10/10:30pm NE 7-9 kts 23.1°c 1016.2 hPa 86% 0.0mm
10/10:00pm NE 9-10 kts 23.4°c 1016.2 hPa 87% 0.0mm
10/09:30pm NE 8-9 kts 23.1°c 1016.5 hPa 85% 0.0mm
10/09:00pm NE 7-8 kts 23.3°c 1016.6 hPa 85% 0.0mm
10/08:30pm NE 8-9 kts 23.5°c 1016.3 hPa 81% 0.0mm
10/08:00pm NNE 8 kts 23.0°c 1016.0 hPa 75% 0.0mm
10/07:30pm NNE 8-9 kts 23.3°c 1015.8 hPa 74% 0.0mm
10/07:00pm NE 8-10 kts 23.5°c 1015.5 hPa 73% 0.0mm
10/06:30pm NE 9-10 kts 24.0°c 1015.2 hPa 73% 0.0mm
10/06:00pm NE 9-10 kts 24.3°c 1014.8 hPa 70% 0.0mm
10/05:30pm NE 9-11 kts 24.8°c 1014.5 hPa 69% 0.0mm
10/05:00pm NE 12-14 kts 25.2°c 1014.0 hPa 68% 0.0mm
10/04:30pm NE 12-14 kts 25.8°c 1013.8 hPa 65% 0.0mm
10/04:00pm NE 11-14 kts 25.3°c 1013.9 hPa 67% 0.0mm
10/03:30pm NE 11-14 kts 25.8°c 1014.0 hPa 65% 0.0mm
10/03:00pm NE 11-13 kts 26.3°c 1014.2 hPa 61% 0.0mm
10/02:30pm NE 10-11 kts 27.0°c 1014.7 hPa 60% 0.0mm
10/02:00pm ENE 10-12 kts 27.6°c 1015.1 hPa 57% 0.0mm
10/01:30pm ENE 10-11 kts 27.8°c 1015.2 hPa 58% 0.0mm
10/01:00pm ENE 9-10 kts 28.1°c 1015.3 hPa 58% 0.0mm
10/12:30pm ENE 9-10 kts 28.3°c 1015.6 hPa 57% 0.0mm
10/12:00pm ENE 8-9 kts 27.6°c 1015.7 hPa 59% 0.0mm
10/11:30am ENE 7-8 kts 27.1°c 1015.9 hPa 60% 0.0mm
10/11:00am NE 7-8 kts 27.9°c 1016.0 hPa 58% 0.0mm
10/10:30am ENE 8-9 kts 26.8°c 1016.0 hPa 64% 0.0mm
10/10:00am ENE 7-8 kts 27.0°c 1016.1 hPa 60% 0.0mm
10/09:30am E 7-8 kts 26.5°c 1016.3 hPa 62% 0.0mm
10/09:00am E 7-8 kts 25.8°c 1016.6 hPa 67% 0.0mm
10/08:30am SE 6-8 kts 25.7°c 1016.8 hPa 71% 0.0mm
10/08:00am SSE 6-8 kts 24.5°c 1016.7 hPa 80% 0.0mm
10/07:30am SSE 6-8 kts 23.2°c 1016.5 hPa 92% 0.0mm
10/07:00am S 6-7 kts 22.8°c 1016.4 hPa 91% 0.0mm
10/06:30am S 6-8 kts 22.6°c 1016.1 hPa 97% 0.0mm
10/06:00am S 6-7 kts 22.0°c 1015.9 hPa 99% 0.0mm
10/05:30am SSW 4-6 kts 21.0°c 1015.5 hPa 99% 0.0mm
10/05:00am SSW 6-7 kts 20.9°c 1015.6 hPa 99% 0.0mm
10/04:30am SSW 5-7 kts 21.1°c 1015.4 hPa 96% 0.0mm
10/04:00am ENE 6-7 kts 21.9°c 1015.1 hPa 93% 0.0mm
10/03:30am ENE 8-9 kts 22.2°c 1014.9 hPa 94% 0.0mm
10/03:00am NE 8-9 kts 22.3°c 1015.1 hPa 96% 0.0mm
10/02:30am E 7-8 kts 22.3°c 1015.3 hPa 99% 0.0mm
10/02:00am ESE 8-9 kts 22.2°c 1016.1 hPa 98% 0.0mm
10/01:30am ESE 10-12 kts 22.2°c 1016.0 hPa 98% 0.0mm
10/01:00am ESE 8-9 kts 22.1°c 1016.5 hPa 98% 0.0mm
10/12:30am ESE 6-8 kts 22.4°c 1017.0 hPa 99% 0.0mm
10/12:00am ESE 6-7 kts 22.3°c 1017.5 hPa 99% 0.0mm
Time Wind Speed Temp Pressure Rel. Hum Rain
09/11:30pm E 7 kts 22.2°c 1017.4 hPa 99% 0.0mm
09/11:00pm E 8-10 kts 22.1°c 1017.5 hPa 97% 0.0mm
09/10:30pm ENE 9-12 kts 22.4°c 1017.6 hPa 97% 0.0mm
09/10:00pm ENE 11-13 kts 22.4°c 1017.7 hPa 95% 0.0mm
09/09:30pm ENE 13-16 kts 22.4°c 1017.8 hPa 95% 0.0mm
09/09:00pm ENE 14-16 kts 22.5°c 1017.8 hPa 92% 0.0mm
09/08:30pm E 15-17 kts 22.6°c 1017.6 hPa 87% 0.0mm
09/08:00pm E 14-16 kts 22.8°c 1017.4 hPa 85% 0.0mm
09/07:30pm ESE 14-16 kts 22.7°c 1017.5 hPa 83% 0.0mm
09/07:00pm E 14-15 kts 23.0°c 1017.4 hPa 82% 0.0mm
09/06:30pm ESE 13-15 kts 23.3°c 1017.3 hPa 75% 0.0mm
09/06:00pm ESE 12-13 kts 23.3°c 1017.3 hPa 69% 0.0mm
09/05:30pm ESE 9-11 kts 24.1°c 1017.2 hPa 67% 0.0mm
09/05:00pm ESE 11-13 kts 25.4°c 1017.0 hPa 59% 0.0mm
09/04:30pm SE 11-13 kts 25.6°c 1016.8 hPa 58% 0.0mm
09/04:00pm SE 11-13 kts 25.3°c 1016.7 hPa 60% 0.0mm
09/03:30pm ESE 11-14 kts 25.4°c 1016.9 hPa 62% 0.0mm
09/03:00pm ESE 13-15 kts 25.4°c 1017.2 hPa 66% 0.0mm
09/02:30pm ESE 13-15 kts 25.3°c 1017.5 hPa 67% 0.0mm
09/02:00pm ESE 13-15 kts 26.0°c 1017.5 hPa 60% 0.0mm
09/01:30pm ESE 14-16 kts 26.2°c 1017.6 hPa 59% 0.0mm
09/01:00pm ESE 13-15 kts 26.7°c 1017.7 hPa 59% 0.0mm
09/12:30pm ESE 14-17 kts 26.5°c 1018.0 hPa 57% 0.0mm
09/12:00pm ESE 13-15 kts 27.4°c 1018.2 hPa 55% 0.0mm
09/11:30am ESE 12-14 kts 28.1°c 1018.4 hPa 53% 0.0mm
09/11:00am SE 11-13 kts 28.0°c 1018.8 hPa 54% 0.0mm
09/10:30am SE 10-11 kts 27.7°c 1019.0 hPa 54% 0.0mm
09/10:00am ESE 12-14 kts 27.3°c 1019.0 hPa 60% 0.0mm
09/09:30am ESE 13-14 kts 26.5°c 1018.9 hPa 61% 0.0mm
09/09:00am ESE 13-15 kts 25.8°c 1019.0 hPa 62% 0.6mm
09/08:30am ESE 14-16 kts 25.1°c 1019.1 hPa 64% 0.4mm
09/08:00am ESE 13-15 kts 24.7°c 1019.0 hPa 67% 0.4mm
09/07:30am ESE 13-15 kts 23.7°c 1019.0 hPa 67% 0.4mm
09/07:00am ESE 15-17 kts 23.7°c 1018.8 hPa 73% 0.4mm
09/06:30am ESE 15-16 kts 23.4°c 1018.7 hPa 79% 0.4mm
09/06:00am ESE 15-16 kts 22.6°c 1018.5 hPa 83% 0.4mm
09/05:30am ESE 14-16 kts 22.2°c 1018.3 hPa 84% 0.4mm
09/05:00am SE 13-15 kts 22.0°c 1018.3 hPa 87% 0.4mm
09/04:30am ESE 14-15 kts 21.6°c 1018.0 hPa 84% 0.4mm
09/04:00am ESE 13-15 kts 21.8°c 1017.8 hPa 86% 0.4mm
09/03:30am ESE 13-16 kts 21.7°c 1017.9 hPa 86% 0.4mm
09/03:00am ESE 14-16 kts 21.7°c 1017.9 hPa 89% 0.4mm
09/02:30am ESE 14-16 kts 21.5°c 1018.1 hPa 87% 0.4mm
09/02:00am ESE 15-17 kts 21.3°c 1018.4 hPa 89% 0.4mm
09/01:30am ESE 15-18 kts 21.3°c 1018.6 hPa 92% 0.4mm
09/01:00am SE 15-20 kts 21.4°c 1019.0 hPa 84% 0.0mm
09/12:30am ESE 16-18 kts 21.9°c 1019.2 hPa 84% 0.0mm
09/12:00am ESE 15-18 kts 22.0°c 1019.6 hPa 81% 0.0mm